Location: Quebec
(46.8000°N, 71.2500°W)
Time: 14:41:53
(UTC-04:00)

N. Korean satellite - Pass Details

Date: 11 October 2017
Orbit: 459 x 517 km, 97.2° (Epoch: 17 October)

Event Time Altitude Azimuth Distance (km) Brightness Sun altitude
Rises 19:00:15 0° 178° (S) 2,558 10.2 -10.3°
Reaches altitude 10° 19:02:22 10° 183° (S) 1,671 9.3 -10.6°
Maximum altitude 19:05:53 51° 260° (W) 618 7.6 -11.2°
Drops below altitude 10° 19:09:21 10° 338° (NNW) 1,654 9.6 -11.8°
Sets 19:11:26 0° 343° (NNW) 2,529 10.5 -12.2°
